Location: Hilderbrand
(37.5756°N, 89.8540°W)
Time: 12:22:12
(UTC+00:00)

Cosmos 1025 Rocket - Pass Details

Date: 15 November 2025
Orbit: 586 x 610 km, 82.5° (Epoch: 05 December)

Event Time Altitude Azimuth Distance (km) Brightness Sun altitude
Rises 12:02:17 0° 199° (SSW) 2,853 6.5 -7.8°
Reaches altitude 10° 12:04:33 10° 205° (SSW) 1,956 5.6 -7.3°
Maximum altitude 12:08:44 48° 280° (W) 804 3.3 -6.5°
Drops below altitude 10° 12:12:57 10° 355° (N) 1,971 5.4 -5.8°
Sets 12:15:15 0° 1° (N) 2,879 6.3 -5.3°
